Location: Oshawa
(43.9000°N, 78.8670°W)
Time: 23:59:45
(UTC-04:00)

Daily predictions for brighter satellites

Satellite Brightness Start Highest point End
(mag) Time Altitude Azimuth Time Altitude Azimuth Time Altitude Azimuth
SL-16 R/B 3.9 21:18:44 10° SW 21:24:01 40° WNW 21:29:21 10° NNE
Cosmos 1812 Rocket 3.6 21:24:12 10° N 21:28:36 69° E 21:33:00 10° SSE
H-2A R/B 4.1 21:26:48 10° ENE 21:28:40 12° NE 21:30:32 10° NE
PSLV R/B 3.6 21:27:41 10° WSW 21:31:07 52° S 21:34:36 10° E
Tsikada Rocket 4.1 21:24:51 10° S 21:31:14 74° E 21:37:35 10° NNE
YAOGAN 6 4.0 21:32:14 10° SE 21:35:18 25° ENE 21:38:25 10° NNE
CZ-2C R/B 2.2 21:34:53 10° SSW 21:36:58 30° W 21:39:03 10° NNW
SPOT 1/Viking Rocket 4.5 21:32:38 10° SE 21:37:13 33° ENE 21:41:47 10° N
SPOT 5 2.8 21:33:01 10° SSE 21:37:16 54° ENE 21:41:30 10° N
Terra 4.0 21:37:36 10° E 21:39:36 13° ENE 21:41:35 10° NNE
USA 234 3.9 21:35:45 10° ESE 21:42:03 52° NNE 21:48:23 10° NW
H-2A R/B 2.4 21:38:07 10° S 21:42:22 66° WSW 21:46:46 10° NNW
Lacrosse 4 Rocket 2.0 21:39:32 10° S 21:43:11 34° ESE 21:46:54 10° NE
deb Chang Zheng 4 3.8 21:38:55 10° N 21:43:20 78° WNW 21:47:40 10° SSW
CZ-4 SHROUD 3.3 21:40:57 10° SSE 21:44:04 65° ENE 21:47:13 10° N
ERS-1 Rocket 3.6 21:39:50 10° S 21:44:45 56° WSW 21:49:43 10° NNW
Lacrosse 5 4.4 21:42:45 10° NW 21:46:17 19° N 21:49:50 10° NE
GEOS 3 Rocket 4.3 21:43:26 10° SSE 21:48:32 49° WSW 21:53:36 10° NW
Cosmos 1515 3.7 21:45:10 10° S 21:49:00 66° E 21:52:50 10° NNE
Meteor 2-12 Rocket 4.4 21:43:26 10° N 21:49:33 83° E 21:55:37 10° S
Cosmos 1626 Rocket 4.4 21:45:54 10° SSW 21:50:14 54° WNW 21:54:34 10° N
PSLV R/B 3.1 21:47:38 10° SSE 21:50:42 76° ENE 21:53:50 10° N
Cosmos 1603 4.5 21:47:53 10° SW 21:53:24 57° WNW 21:58:56 10° NNE
Cosmos 1066 Rocket 4.4 21:50:13 10° S 21:55:47 57° E 22:01:30 10° NNE
Atlas Centaur 2 3.8 21:51:36 10° SW 21:57:36 29° S 22:03:24 13° SE
MetOp-A 4.2 21:52:36 10° SSE 21:57:55 71° ENE 22:03:16 10° N
Envisat 3.1 21:54:58 10° S 22:00:03 77° WSW 22:05:10 10° NNW
Cosmos 1238 4.4 21:57:03 10° SSW 22:00:05 68° W 22:03:08 10° N
Cosmos 1634 Rocket 4.0 21:55:09 10° N 22:01:19 70° E 22:07:18 11° SSE
Cosmos 407 Rocket 3.7 21:58:15 10° S 22:03:20 51° ESE 22:08:24 10° NNE
USA 245 4.3 21:58:44 12° SSE 22:03:49 57° ENE 22:08:30 10° N
Cosmos 1943 Rocket 2.9 21:59:25 10° NNW 22:04:39 40° ENE 22:08:55 15° ESE
Meteor 1-22 Rocket 4.4 21:59:09 10° N 22:04:44 62° ENE 22:09:45 14° SSE
SL-8 R/B 4.3 22:01:31 10° WNW 22:06:17 55° NNE 22:11:02 10° E
Cosmos 1900 4.5 22:03:39 10° SSW 22:08:40 56° ESE 22:13:42 10° NE
Cosmos 1953 Rocket 3.6 22:06:22 10° S 22:10:41 60° E 22:15:06 10° NNE
Cosmos-2242 4.2 22:08:20 10° NNE 22:12:13 29° ENE 22:14:41 18° ESE
SL-27 R/B 3.8 22:11:35 19° ESE 22:12:13 20° E 22:14:46 10° NE
Cosmos 1943 3.2 22:07:56 10° SSW 22:13:37 89° WNW 22:19:22 10° NNE
Cosmos 2346 Rocket 4.4 22:12:07 10° S 22:18:17 85° E 22:24:27 10° N
Cosmos 1953 3.6 22:15:19 10° NNE 22:18:43 26° ENE 22:20:32 19° ESE
Cosmos 1939 Rocket 4.4 22:14:58 10° SSW 22:18:45 34° W 22:22:32 10° NNW
Lacrosse 5 rocket 4.3 22:17:11 10° NW 22:19:25 14° N 22:21:42 10° NNE
Cosmos 2279 Rocket 4.2 22:14:54 10° N 22:21:05 59° ENE 22:25:44 18° SSE
SL-08 RB Rocket 4.0 22:19:22 20° SE 22:22:22 54° ENE 22:26:47 10° N
Cosmos 1954 Rocket 4.3 22:19:49 13° S 22:24:20 46° ESE 22:29:23 10° NNE
Cosmos 1346 Rocket 2.8 22:27:06 10° SSW 22:30:59 78° W 22:34:57 10° N
CZ-4C R/B 4.1 22:32:02 11° E 22:32:02 11° E 22:33:17 10° E
Cosmos 1842 3.4 22:35:17 26° SSE 22:37:11 52° E 22:41:01 10° NNE
SeaSat 1 3.0 22:35:39 18° S 22:39:12 52° WSW 22:44:02 10° NW
ARGOS 3.2 22:36:49 20° SSE 22:40:43 86° WSW 22:46:12 10° NNW
SL-23 DEB 4.1 22:37:52 10° SW 22:44:03 67° SSE 22:47:48 10° ENE
Cosmos 1758 Rocket 3.7 22:40:29 13° SSW 22:44:20 74° W 22:48:42 10° N
COSMOS 2455 4.4 22:38:51 10° WSW 22:44:24 38° NW 22:50:00 10° NNE
Meteor 1-21 4.3 22:39:58 12° S 22:45:19 86° E 22:51:11 10° NNE
CARTOSAT-1 4.0 22:45:04 28° SE 22:47:00 50° ENE 22:51:12 10° N
Geosat 4.3 22:46:02 10° NE 22:50:53 47° ESE 22:53:29 25° S
ISS -1.1 22:48:37 10° WNW 22:51:31 28° NNW 22:54:24 10° NE
CZ-4B R/B 4.2 22:48:23 10° N 22:53:22 56° WNW 22:58:27 10° SSW
Cosmos 2369 Rocket 3.4 22:50:05 10° NW 22:55:06 34° WSW 22:59:14 14° SSW
Landsat 7 3.8 22:58:24 29° SSE 23:00:50 86° W 23:05:36 10° NNW
Cosmos 1766 4.0 22:57:01 10° NNW 23:00:54 49° W 23:03:01 24° SSW
Cosmos 1023 Rocket 4.5 22:59:56 24° S 23:03:07 66° ESE 23:08:21 10° NNE
Cosmos 1850 Rocket 4.2 23:01:16 30° SSE 23:03:33 51° ESE 23:08:35 10° NNE
CZ-4 R/B 4.4 22:59:40 10° N 23:04:37 61° WNW 23:09:21 11° SSW
Cosmos 1570 Rocket 4.0 23:00:20 10° NNW 23:05:44 77° ENE 23:08:12 33° SSE
Cosmos 1758 3.3 23:02:41 10° N 23:06:50 90° ESE 23:08:15 40° S
H-2A R/B 1.9 23:04:51 32° SSE 23:07:12 83° ENE 23:12:20 10° NNW
PSLV R/B 3.9 23:05:10 10° W 23:08:17 41° SSW 23:08:17 41° SSW
Cosmos 1140 Rocket 3.4 23:07:18 24° S 23:10:31 76° ESE 23:15:47 10° NNE
ATLAS 3B R/B 3.5 23:03:12 10° SW 23:10:47 59° NW 23:18:09 10° NNE
Spot 4 3.8 23:11:57 37° SSE 23:13:48 73° ENE 23:18:36 10° N
IGS 5A 3.4 23:12:41 43° SSE 23:13:59 83° ENE 23:18:10 10° N
Cosmos 1842 Rocket 3.6 23:09:38 10° N 23:14:01 68° E 23:15:21 43° SSE
Terra 1.8 23:14:41 36° S 23:16:38 86° WSW 23:21:26 10° NNW
Cosmos 1340 3.5 23:17:42 34° E 23:17:42 34° E 23:21:06 10° NNE
NOSS 3-2 (A) 4.0 23:20:30 33° SE 23:21:54 36° ESE 23:27:48 10° NE
Lacrosse 4 Rocket 3.7 23:18:37 10° WSW 23:21:58 24° NW 23:25:24 10° N
Cosmos 1544 3.1 23:19:43 10° N 23:23:28 63° E 23:23:55 57° ESE
Cosmos 2084 4.0 23:19:40 10° NW 23:23:40 46° WSW 23:24:37 39° SSW
SAR-Lupe-2 4.0 23:23:38 44° SW 23:24:23 53° W 23:27:55 10° NNW
USA 234 3.5 23:21:50 31° SSE 23:25:00 58° SW 23:31:29 10° NW
Cosmos 1470 3.0 23:23:41 10° N 23:27:30 53° ENE 23:27:56 49° ESE
Cosmos 1805 3.7 23:25:05 10° NNW 23:28:57 56° W 23:29:59 42° SSW
Cosmos 1092 Rocket 4.0 23:27:07 33° S 23:30:07 71° E 23:36:22 10° NNE
Lacrosse 5 3.9 23:26:41 10° NW 23:30:48 24° NNE 23:34:54 10° ENE
BREEZE-M DEB (TANK) 3.8 23:28:58 10° WNW 23:30:55 26° N 23:32:05 16° NE
Aureole 2 4.3 23:29:36 10° NNW 23:32:14 66° NNW 23:32:14 66° NNW
Cosmos 614 Rocket 3.9 23:30:46 37° S 23:32:50 76° ESE 23:38:03 10° NNE
COSMOS 2406 3.4 23:33:42 17° SSW 23:38:09 73° WNW 23:43:55 10° NNE
Nadezhda 4 Rocket 4.1 23:34:52 26° SSW 23:38:39 76° W 23:45:01 10° N
DMSP B5D2-2 4.3 23:37:20 10° N 23:42:36 69° WNW 23:45:23 28° SSW
Atlas Centaur 2 4.1 23:40:24 10° WSW 23:46:02 24° SSW 23:46:02 24° SSW
Cosmos 2221 2.8 23:42:57 10° N 23:47:10 50° ENE 23:47:39 47° ESE
Cosmos 1943 Rocket 3.4 23:43:25 10° NW 23:48:14 31° WSW 23:50:26 23° SW
SL-8 R/B 3.7 23:44:11 10° WNW 23:48:58 64° SSW 23:49:39 56° S
Cosmos 2082 Rocket 3.9 23:49:20 17° E 23:49:20 17° E 23:52:42 10° ENE
COSMOS 2487 2.6 23:54:06 68° W 23:54:14 69° WNW 23:57:51 10° NNE
Cosmos 1953 4.1 23:51:54 10° NW 23:55:04 23° W 23:56:18 20° WSW
